SCP
0 0 0 0 0 0 0 0 0 0 0 0 0 1 1 1 1 1 0 1 1 1 2 3 4 4 4 4 5 5 5 5 5 6 5 5 5 5 4 4 3 2 2 2
0 0 0 0 0 0 0 0 0 0 0 0 0 0 1 1 1 1 1 1 1 1 1 2 3 3 3 4 4 5 5 5 6 7 7 6 6 5 5 5 4 3 2 2
0 0 0 0 0 0 0 0 0 0 0 0 0 0 1 1 1 1 1 1 1 1 1 2 2 2 2 3 4 5 5 6 7 8 8 8 8 7 6 6 5 4 3 3
0 0 0 0 0 0 0 0 0 0 0 0 0 0 1 1 1 1 1 1 1 1 1 1 1 2 2 2 3 4 4 5 7 7 8 9 10 9 7 7 6 5 3 3
0 0 0 0 0 0 0 0 0 0 0 0 0 0 1 2 2 2 1 1 1 1 1 1 1 1 1 2 3 3 4 5 6 7 8 9 9 8 7 6 5 4 3 3
0 0 0 0 0 0 0 0 0 0 0 0 0 0 1 2 2 2 2 1 1 1 1 1 1 1 1 1 2 3 4 5 6 6 7 8 8 7 6 5 5 3 3 2
0 0 0 0 0 0 0 0 0 0 0 0 0 0 1 2 2 2 2 1 1 1 1 1 1 1 1 1 1 2 3 4 5 5 5 6 7 6 6 5 4 3 2 2
0 0 0 0 0 0 0 0 0 0 0 0 0 1 1 2 2 2 1 1 1 1 1 1 1 1 1 1 1 1 2 3 4 4 4 5 6 6 5 4 4 3 2 2
0 0 0 0 0 0 0 0 0 0 0 0 0 0 1 1 2 1 1 1 1 1 1 1 1 1 1 1 1 1 1 2 2 3 4 5 5 4 3 3 3 2 2 1
0 0 0 0 0 0 0 0 0 0 0 0 0 0 1 1 1 1 1 1 1 1 1 1 1 0 0 0 0 1 1 2 2 3 4 4 4 2 2 1 1 1 1 1
0 0 0 0 0 0 0 0 0 0 0 0 0 0 0 0 0 0 1 1 0 0 0 0 0 0 0 0 0 0 1 1 2 2 3 2 2 1 1 1 1 1 1 0
0 0 0 0 0 0 0 0 0 0 0 0 0 0 0 0 0 0 0 0 0 0 0 0 0 0 0 0 0 0 0 0 1 1 1 1 1 1 0 0 0 0 0 0
0 0 0 0 0 0 0 0 0 0 0 0 0 0 0 0 0 0 0 0 0 0 0 0 0 0 0 0 0 0 0 0 0 0 0 0 0 0 0 0 0 0 0 0
0 0 0 0 0 0 0 0 0 0 0 0 0 0 0 0 0 0 0 0 0 0 0 0 0 0 0 0 0 0 0 0 0 0 0 0 0 0 0 0 0 0 0 0
0 0 0 0 0 0 0 0 0 0 0 0 0 0 0 0 0 0 0 0 0 0 0 0 0 0 0 0 0 0 0 0 0 0 0 0 0 0 0 0 0 0 0 0
0 0 0 0 0 0 0 0 0 0 0 0 0 0 0 0 0 0 0 0 0 0 0 0 0 0 0 0 0 0 0 0 0 0 0 0 0 0 0 0 0 0 0 0
0 0 0 0 0 0 0 0 0 0 0 0 0 0 0 0 0 0 0 0 0 0 0 0 0 0 0 0 0 0 0 0 0 0 0 0 0 0 0 0 0 0 0 0
0 0 0 0 0 0 0 0 0 0 0 0 0 0 0 0 0 0 0 0 0 0 0 0 0 0 0 0 0 0 0 0 0 0 0 0 0 0 0 0 0 0 0 0
0 0 0 0 0 0 0 0 0 0 0 0 0 0 0 0 0 0 0 0 0 0 0 0 0 0 0 0 0 0 0 0 0 0 0 0 0 0 0 0 0 0 0 0
0 0 0 0 0 0 0 0 0 0 0 0 0 0 0 0 0 0 0 0 0 0 0 0 0 0 0 0 0 0 0 0 0 0 0 0 0 0 0 0 0 0 0 0
0 0 0 0 0 0 0 0 0 0 0 0 0 0 0 0 0 0 0 0 0 0 0 0 0 0 0 0 0 0 0 0 0 0 0 0 0 0 0 0 0 0 0 0
0 0 0 0 0 0 0 0 0 0 0 0 0 0 0 0 0 0 0 0 0 0 0 0 0 0 0 0 0 0 0 0 0 0 0 0 0 0 0 0 0 0 0 0
0 0 0 0 0 0 0 0 0 0 0 0 0 0 0 0 0 0 0 0 0 0 0 0 0 0 0 0 0 0 0 0 0 0 0 0 0 0 0 0 0 0 0 0
0 0 0 0 0 0 0 0 0 0 0 0 0 0 0 0 0 0 0 0 0 0 0 0 0 0 0 0 0 0 0 0 0 0 0 0 0 0 0 0 0 0 0 0
0 0 0 0 0 0 0 0 0 0 0 0 0 0 0 0 0 0 0 0 0 0 0 0 0 0 0 0 0 0 0 0 0 0 0 0 0 0 0 0 0 0 0 0
0 0 0 0 0 0 0 0 0 0 0 0 0 0 -0 0 0 0 0 0 0 0 0 0 0 0 0 0 0 0 0 0 0 0 0 0 0 0 0 0 0 0 0 0
Wind_Speed
4 4 3 6 8 9 11 12 13 10 5 5 7 8 4 2 2 1 2 4 7 8 9 9 9 9 9 8 8 7 3 5 5 5 5 5 4 3 3 3 4 4 1 2
5 4 8 7 7 9 11 12 12 10 10 10 10 11 7 1 3 6 7 8 9 9 10 9 10 10 11 10 9 9 6 3 5 5 6 4 5 4 4 3 4 4 2 1
5 8 8 8 9 10 12 12 12 13 13 13 14 11 7 2 6 8 8 9 10 9 10 10 10 10 10 11 10 9 9 6 4 5 5 5 4 4 3 3 3 4 3 3
3 8 9 9 10 11 11 13 14 14 14 10 11 9 4 6 11 12 12 12 11 10 10 10 10 10 11 11 11 10 9 8 5 3 6 7 6 5 5 4 4 4 3 3
8 10 10 11 12 11 11 14 16 17 14 14 11 10 3 11 14 15 15 14 14 13 12 11 11 10 11 12 11 10 9 7 6 2 4 6 5 4 4 4 6 5 4 4
8 8 8 10 12 10 12 15 17 14 10 10 7 7 6 10 13 14 15 15 15 14 14 13 12 10 10 10 10 10 8 7 7 6 3 4 7 7 6 5 5 4 3 3
8 11 10 11 12 12 14 12 7 5 3 2 8 5 8 13 15 15 15 16 16 14 13 13 12 11 9 10 9 9 9 8 8 8 7 5 7 7 6 5 4 4 3 2
4 7 9 11 10 10 12 12 8 7 7 8 7 6 7 15 16 16 15 15 15 15 13 12 11 10 9 9 9 8 8 8 8 7 7 6 7 5 4 4 3 2 2 2
7 6 10 9 8 11 11 10 9 8 9 8 3 6 7 18 19 19 18 18 16 15 13 12 11 10 9 9 9 8 7 7 7 7 7 7 7 6 5 4 3 1 2 3
8 2 8 7 8 12 10 10 6 6 6 5 6 7 10 18 19 20 19 17 15 14 13 12 11 10 9 8 7 8 8 7 7 6 5 5 5 4 3 3 2 1 1 1
7 5 6 7 9 12 11 10 8 5 4 4 5 4 8 12 15 17 17 15 14 13 13 12 11 10 9 8 8 8 8 8 7 6 5 5 4 3 2 1 1 0 1 2
5 6 4 9 8 7 10 9 8 5 5 4 2 3 7 9 12 13 13 13 13 13 13 12 12 11 10 10 9 9 8 8 7 6 5 5 4 3 2 1 1 2 3 3
8 6 1 6 4 7 9 10 8 4 3 4 3 4 6 8 10 10 10 11 11 12 12 11 11 11 10 9 9 8 8 7 7 6 6 5 5 5 4 3 3 3 3 4
5 5 9 7 6 6 7 10 10 7 4 4 3 4 7 9 10 11 10 10 9 10 9 9 9 8 8 8 8 8 8 7 7 7 7 7 6 5 5 5 5 4 4 4
5 6 9 8 5 5 7 8 9 9 6 4 3 4 6 7 8 8 9 8 9 9 9 8 7 6 6 6 6 6 5 5 5 6 6 6 5 4 5 5 6 6 6 7
3 3 5 6 4 2 4 6 6 6 6 4 3 4 4 4 5 7 9 9 9 9 9 7 6 6 6 6 6 5 5 4 5 6 6 5 6 6 7 7 7 6 7 7
0 2 2 3 5 3 2 4 4 4 4 4 4 3 3 4 6 7 8 9 9 9 9 8 7 6 5 5 5 5 6 6 6 7 7 7 7 7 7 8 7 7 7 7
4 2 3 2 4 0 6 6 4 3 3 2 2 2 2 2 3 5 6 7 8 9 8 8 7 6 6 6 5 5 6 7 7 7 7 7 7 7 7 7 7 7 6 6
4 3 4 3 2 6 7 6 5 2 4 2 2 3 2 1 3 7 8 7 7 7 7 6 7 6 6 7 6 7 7 7 7 7 7 7 7 7 7 7 7 6 5 5
2 3 4 4 5 2 7 9 5 2 3 4 2 4 6 5 4 6 7 7 6 6 6 6 6 7 6 6 6 7 7 7 7 7 6 6 5 6 6 6 5 4 4 4
5 5 5 5 3 6 9 8 5 3 5 6 4 5 7 8 6 5 6 6 5 4 5 6 5 4 5 5 5 6 6 6 5 5 5 5 5 5 5 5 5 5 4 4
4 2 2 2 2 4 11 8 3 6 8 6 6 6 6 5 5 5 5 5 5 5 5 5 4 4 3 4 4 5 4 3 3 3 4 4 5 6 6 5 5 5 5 5
3 3 3 2 4 8 8 5 4 5 7 6 6 5 3 3 5 5 5 5 5 5 4 4 4 4 3 3 3 3 2 1 2 3 3 3 5 5 6 6 6 6 6 5
3 3 1 2 7 9 7 6 5 3 5 6 5 4 3 4 5 5 4 5 5 5 4 4 4 5 4 2 2 2 2 2 1 2 3 4 5 5 6 5 5 6 6 6
0 5 4 4 6 9 8 7 9 7 6 6 4 3 3 3 4 4 4 5 4 4 4 4 4 4 5 3 2 3 3 4 2 3 4 4 4 4 5 5 5 5 5 5
5 6 4 3 6 7 10 10 10 9 7 6 5 4 3 2 3 4 4 4 4 5 5 5 4 4 5 4 3 3 2 4 3 4 4 3 2 3 4 4 4 8 7 7
Wind_Direction
242 272 3 11 356 328 313 304 300 305 339 331 306 297 270 180 151 87 25 21 29 25 18 27 6 355 344 335 325 310 247 191 189 172 177 170 168 158 140 135 135 135 103 85
261 44 24 352 322 312 311 307 309 321 344 332 304 290 288 147 91 58 29 21 23 20 7 16 8 359 352 342 336 325 306 248 201 183 174 176 162 154 146 136 131 129 135 106
20 42 3 332 331 346 326 336 339 328 320 300 287 278 277 190 89 67 35 18 16 11 5 5 3 360 352 346 339 325 316 294 246 196 171 162 149 142 136 133 115 96 90 73
42 35 2 346 359 355 320 339 326 307 299 291 292 289 332 37 49 32 19 16 3 6 8 5 2 358 352 347 339 329 321 311 290 211 174 168 162 163 162 148 126 105 86 71
69 41 19 5 351 330 317 314 297 284 276 276 280 278 26 36 27 16 5 5 356 1 2 360 1 0 356 353 347 340 333 334 336 304 180 165 152 150 137 129 125 119 105 83
98 84 51 7 335 333 325 311 291 265 250 259 293 295 50 22 11 4 359 358 354 355 355 357 0 1 360 358 356 354 358 12 15 21 60 122 132 127 125 123 123 112 106 95
129 91 62 24 359 355 342 337 325 326 299 326 13 42 54 17 10 3 354 352 351 354 355 355 356 359 3 4 5 8 18 27 29 36 44 73 111 122 127 127 127 124 116 109
347 89 50 28 13 348 345 354 350 326 326 328 3 63 60 17 3 357 356 354 354 353 353 358 2 3 8 11 12 19 26 32 37 49 54 66 87 95 103 108 112 118 134 170
354 75 76 43 16 14 352 357 331 305 303 301 42 66 28 5 358 354 354 354 353 352 355 3 7 7 11 17 16 22 34 43 47 55 60 67 77 86 97 104 108 128 184 182
343 346 83 61 29 29 12 353 343 346 343 335 18 39 358 349 349 347 349 350 351 355 1 7 9 10 15 17 21 29 40 46 49 57 64 73 75 85 98 102 112 166 211 178
337 307 111 78 43 22 17 15 359 343 11 353 353 27 359 342 342 341 344 353 2 7 11 13 14 17 20 24 30 33 35 38 42 48 54 58 59 59 62 85 116 244 253 247
13 317 67 88 90 60 39 21 9 9 16 17 13 20 352 339 335 343 355 3 8 14 18 19 19 20 24 28 30 33 30 31 30 32 36 40 38 33 21 5 302 270 261 261
342 321 19 137 134 49 36 26 22 34 44 30 18 343 345 342 347 358 3 7 10 16 21 20 19 20 23 25 28 30 27 26 23 22 24 28 25 16 5 349 329 305 290 284
286 20 44 57 56 33 35 34 35 45 48 48 35 344 351 356 359 2 8 10 12 20 24 25 20 18 22 26 30 30 27 26 30 30 31 31 25 10 353 345 333 332 334 327
299 70 82 89 90 71 62 51 49 50 50 57 41 23 359 356 357 358 5 10 17 22 24 26 22 18 23 26 28 31 31 29 33 39 39 31 23 19 11 6 4 4 1 359
345 106 134 141 139 114 85 74 63 61 54 66 57 39 9 358 4 8 11 14 20 22 26 28 27 23 27 31 32 30 34 37 40 39 35 27 28 28 24 23 21 9 11 13
333 278 275 151 157 212 112 92 82 74 61 45 44 28 8 14 25 19 14 18 23 23 22 18 25 27 29 40 50 45 40 42 41 43 42 34 32 30 29 28 22 15 21 21
324 309 284 247 192 130 97 113 121 116 99 77 43 21 6 355 66 50 30 24 22 19 16 11 20 34 25 27 52 64 53 46 41 39 45 41 34 28 27 29 28 24 23 23
335 316 293 303 312 124 146 163 173 177 123 118 34 21 349 243 126 60 42 35 28 16 8 10 17 30 31 27 37 53 54 46 39 34 39 41 35 28 27 28 27 23 24 26
226 260 283 289 302 46 124 135 151 217 152 131 81 33 17 39 69 39 33 36 32 23 9 11 21 24 25 29 36 44 50 47 39 30 30 36 38 34 28 26 27 24 26 25
204 204 239 277 301 94 119 133 173 229 122 128 101 63 47 46 46 28 28 33 27 31 18 10 15 23 19 23 42 46 43 46 44 32 28 32 30 39 39 22 22 24 21 24
297 274 248 275 273 137 141 159 196 103 118 128 101 73 60 48 43 32 31 33 23 23 26 9 359 358 14 27 38 57 46 43 55 41 31 45 45 34 32 27 25 22 18 26
236 316 344 10 70 106 149 160 108 124 136 118 101 85 65 46 41 31 24 30 21 17 23 357 342 346 6 40 39 46 41 14 77 66 37 54 67 60 38 31 29 22 21 25
161 111 274 252 159 160 178 155 145 164 122 111 106 101 63 35 33 25 19 29 19 9 4 346 356 4 349 4 49 42 10 321 134 109 75 69 65 67 59 39 36 38 25 18
185 149 219 240 145 149 183 180 169 169 148 141 136 112 78 40 28 11 20 28 8 352 351 4 17 346 321 338 60 67 12 333 5 87 81 81 82 86 81 68 42 41 52 35
216 186 204 235 169 171 183 184 175 169 172 167 155 134 109 71 34 11 17 14 360 355 360 5 358 334 331 356 34 74 41 341 17 63 62 63 78 95 116 116 91 50 55 52